DW4174 Weather Reports


time (UTC)temp
C
wind
direction
speed
KPH
gust
KPH
rain 1hr
cm
rain 24hr
cm
rain mn
cm
humidity
%
barometer
mb
20260902124022 28 104 3.2 6.4 0.00 0.00 0.00 61 1012.1
20260902123122 28 96 1.6 4.8 0.00 0.00 0.00 61 1011.9
20260902122223 28 95 1.6 4.8 0.00 0.00 0.00 61 1011.9
20260902121322 28 94 3.2 6.4 0.00 0.00 0.00 60 1011.9
20260902120422 28 93 3.2 6.4 0.00 0.00 0.00 60 1011.8
20260902114623 29 113 1.6 6.4 0.00 0.00 0.00 59 1011.8
20260902113722 29 108 1.6 4.8 0.00 0.00 0.00 59 1011.8
20260902111923 29 102 3.2 6.4 0.00 0.00 0.00 58 1011.7
20260902110122 29 98 1.6 6.4 0.00 0.00 0.00 58 1011.6
20260902104322 30 108 1.6 4.8 0.00 0.00 0.00 58 1011.7
20260902103422 30 111 1.6 4.8 0.00 0.00 0.00 59 1011.6
20260902102522 30 112 0.0 4.8 0.00 0.00 0.00 58 1011.7
20260902101622 30 112 0.0 1.6 0.00 0.00 0.00 58 1011.8
20260902100722 30 113 1.6 4.8 0.00 0.00 0.00 57 1011.7
20260902095822 30 118 0.0 4.8 0.00 0.00 0.00 58 1011.6
20260902094922 30 0 0.0 0.0 0.00 0.00 0.00 57 1011.6
20260902094022 30 0 0.0 0.0 0.00 0.00 0.00 57 1011.6
20260902093122 30 0 0.0 0.0 0.00 0.00 0.00 57 1011.6
20260902092222 30 0 0.0 0.0 0.00 0.00 0.00 56 1011.5
20260902091322 30 175 0.0 1.6 0.00 0.00 0.00 56 1011.7
20260902090422 30 176 0.0 1.6 0.00 0.00 0.00 54 1011.7
20260902085522 30 0 0.0 0.0 0.00 0.00 0.00 53 1011.6
20260902084622 31 176 0.0 3.2 0.00 0.00 0.00 52 1011.8
20260902083722 31 176 0.0 1.6 0.00 0.00 0.00 50 1011.7
20260902082822 31 176 0.0 1.6 0.00 0.00 0.00 50 1011.6
20260902081922 31 0 0.0 0.0 0.00 0.00 0.00 49 1011.7
20260902081022 31 176 0.0 1.6 0.00 0.00 0.00 48 1011.7
20260902075222 31 0 0.0 0.0 0.00 0.00 0.00 48 1011.6
20260902074322 31 292 1.6 3.2 0.00 0.00 0.00 48 1011.6
20260902072522 32 267 1.6 6.4 0.00 0.00 0.00 47 1011.4
20260902071622 32 177 1.6 6.4 0.00 0.00 0.00 46 1011.4
20260902070722 32 148 1.6 9.7 0.00 0.00 0.00 45 1011.2
20260902065822 32 142 1.6 6.4 0.00 0.00 0.00 45 1011.2
20260902064922 32 162 1.6 8.0 0.00 0.00 0.00 45 1011.1
20260902064022 32 164 0.0 6.4 0.00 0.00 0.00 45 1011.1
20260902062222 32 166 1.6 8.0 0.00 0.00 0.00 45 1011.1
20260902061322 32 166 1.6 6.4 0.00 0.00 0.00 45 1011.1
20260902055522 33 168 1.6 8.0 0.00 0.00 0.00 44 1011.2
20260902052822 33 174 3.2 9.7 0.00 0.00 0.00 42 1011.4
20260902051922 33 188 1.6 9.7 0.00 0.00 0.00 41 1011.4
20260902050122 32 0 0.0 0.0 0.00 0.00 0.00 41 1011.1
20260902045222 33 0 0.0 0.0 0.00 0.00 0.00 41 1011.1
20260902044322 32 0 0.0 0.0 0.00 0.00 0.00 42 1011.0
20260902043422 32 0 0.0 0.0 0.00 0.00 0.00 41 1010.9
20260902042522 32 0 0.0 0.0 0.00 0.00 0.00 41 1010.8
20260902041622 33 0 0.0 0.0 0.00 0.00 0.00 40 1010.8
20260902040722 33 0 0.0 0.0 0.00 0.00 0.00 40 1010.8
20260902035822 33 0 0.0 0.0 0.00 0.00 0.00 40 1010.7
20260902034922 33 0 0.0 0.0 0.00 0.00 0.00 39 1010.6
20260902034022 33 0 0.0 0.0 0.00 0.00 0.00 39 1010.4
20260902033122 34 0 0.0 0.0 0.00 0.00 0.00 38 1010.3
20260902032222 33 0 0.0 0.0 0.00 0.00 0.00 38 1010.1
20260902031322 34 0 0.0 0.0 0.00 0.00 0.00 38 1009.9
20260902030422 34 0 0.0 0.0 0.00 0.00 0.00 38 1009.7
20260902025522 34 0 0.0 0.0 0.00 0.00 0.00 37 1009.6
20260902024622 34 178 0.0 3.2 0.00 0.00 0.00 38 1009.5
20260902021922 35 178 1.6 3.2 0.00 0.00 0.00 37 1009.4
20260902021022 35 178 0.0 6.4 0.00 0.00 0.00 36 1009.4
20260902020122 35 178 0.0 3.2 0.00 0.00 0.00 36 1009.3
20260902015222 35 178 1.6 6.4 0.00 0.00 0.00 36 1009.1
20260902014322 35 178 0.0 6.4 0.00 0.00 0.00 36 1009.1
20260902013422 35 178 0.0 3.2 0.00 0.00 0.00 36 1009.1
20260902012522 35 178 3.2 6.4 0.00 0.00 0.00 35 1009.1
20260902010722 36 157 3.2 8.0 0.00 0.00 0.00 34 1009.3
20260902005822 36 31 1.6 9.7 0.00 0.00 0.00 35 1009.5
20260902004922 36 287 1.6 6.4 0.00 0.00 0.00 34 1009.4
20260902004022 36 214 3.2 11.3 0.00 0.00 0.00 34 1009.6
20260902003121 37 239 4.8 8.0 0.00 0.00 0.00 34 1009.6
20260902002222 36 201 4.8 11.3 0.00 0.00 0.00 34 1009.8
20260902000422 37 227 4.8 14.5 0.00 0.00 0.00 34 1009.8
20260901235522 37 232 3.2 11.3 0.00 0.00 0.00 35 1009.9
20260901234622 37 159 3.2 11.3 0.00 0.00 0.00 35 1009.8
20260901232821 37 196 3.2 16.1 0.00 0.00 0.00 35 1010.1
20260901231921 37 190 4.8 12.9 0.00 0.00 0.00 36 1010.1
20260901231021 37 178 6.4 16.1 0.00 0.00 0.00 35 1010.2
20260901224322 37 154 6.4 12.9 0.00 0.00 0.00 36 1010.5
20260901223421 37 169 8.0 20.9 0.00 0.00 0.00 34 1010.4
20260901222521 37 156 6.4 16.1 0.00 0.00 0.00 36 1010.5
20260901221621 37 223 6.4 19.3 0.00 0.00 0.00 36 1010.7
20260901215821 38 271 4.8 14.5 0.00 0.00 0.00 36 1010.9
20260901214921 37 247 3.2 9.7 0.00 0.00 0.00 38 1011.0
20260901214021 38 191 3.2 11.3 0.00 0.00 0.00 38 1011.1
20260901212221 37 214 4.8 12.9 0.00 0.00 0.00 36 1011.5
20260901210421 37 210 4.8 14.5 0.00 0.00 0.00 38 1011.9
20260901205521 36 205 1.6 11.3 0.00 0.00 0.00 39 1012.0
20260901204621 36 238 3.2 9.7 0.00 0.00 0.00 41 1012.1
20260901203721 36 164 4.8 16.1 0.00 0.00 0.00 41 1012.2
20260901202821 36 175 6.4 16.1 0.00 0.00 0.00 40 1012.3
20260901201921 37 272 8.0 19.3 0.00 0.00 0.00 39 1012.5
20260901201021 36 269 4.8 16.1 0.00 0.00 0.00 41 1012.6
20260901200121 36 258 3.2 14.5 0.00 0.00 0.00 42 1012.7
20260901195221 36 217 3.2 12.9 0.00 0.00 0.00 42 1012.8
20260901194321 35 242 4.8 11.3 0.00 0.00 0.00 43 1012.9
20260901193421 35 190 4.8 9.7 0.00 0.00 0.00 43 1013.0
20260901192521 35 179 4.8 14.5 0.00 0.00 0.00 44 1013.1
20260901191621 35 148 3.2 11.3 0.00 0.00 0.00 45 1013.3
20260901190721 35 37 4.8 8.0 0.00 0.00 0.00 45 1013.4
20260901185821 34 157 4.8 14.5 0.00 0.00 0.00 44 1013.7
20260901184921 34 177 3.2 11.3 0.00 0.00 0.00 46 1013.8
20260901184021 34 236 4.8 11.3 0.00 0.00 0.00 46 1013.9
20260901183121 33 183 4.8 12.9 0.00 0.00 0.00 47 1014.1
20260901182221 33 191 4.8 17.7 0.00 0.00 0.00 46 1014.1
20260901181321 33 222 3.2 12.9 0.00 0.00 0.00 49 1014.2
20260901180421 33 103 6.4 12.9 0.00 0.00 0.00 49 1014.2
20260901175521 32 144 4.8 16.1 0.00 0.00 0.00 50 1014.3
20260901174621 33 210 6.4 12.9 0.00 0.00 0.00 50 1014.3
20260901172821 32 168 4.8 14.5 0.00 0.00 0.00 51 1014.5
20260901171921 32 179 3.2 12.9 0.00 0.00 0.00 51 1014.5
20260901170121 31 168 4.8 14.5 0.00 0.00 0.00 52 1014.4
20260901165221 31 202 3.2 14.5 0.00 0.00 0.00 53 1014.3
20260901164321 31 174 3.2 9.7 0.00 0.00 0.00 54 1014.3
20260901163421 30 191 3.2 8.0 0.00 0.00 0.00 55 1014.3
20260901161621 30 174 4.8 11.3 0.00 0.00 0.00 55 1014.2
20260901160721 30 145 3.2 12.9 0.00 0.03 0.00 55 1014.2
20260901155821 30 162 4.8 12.9 0.00 0.05 0.00 55 1014.1
20260901154021 29 129 4.8 11.3 0.00 0.15 0.00 56 1014.0
20260901151321 28 103 3.2 11.3 0.00 0.28 0.00 61 1013.8
20260901150421 28 89 1.6 4.8 0.00 0.28 0.00 61 1013.9
20260901145521 27 87 3.2 6.4 0.00 0.28 0.00 63 1013.9
20260901144621 27 79 3.2 8.0 0.00 0.28 0.00 64 1013.9
20260901143721 27 68 3.2 6.4 0.00 0.28 0.00 65 1013.8
20260901141921 26 83 3.2 6.4 0.00 0.30 0.00 68 1013.8
20260901135221 25 0 0.0 0.0 0.00 0.30 0.00 70 1013.8
20260901134321 25 0 0.0 0.0 0.00 0.30 0.00 70 1013.6
20260901133421 25 0 0.0 0.0 0.00 0.30 0.00 71 1013.4
20260901131621 25 70 3.2 6.4 0.00 0.30 0.00 71 1013.0
20260901130721 25 73 3.2 8.0 0.00 0.30 0.00 71 1013.0
20260901125821 25 69 3.2 8.0 0.00 0.30 0.00 70 1013.1
20260901124920 25 75 3.2 6.4 0.00 0.30 0.00 70 1013.2